�������l�o���
Date,Time,MP-1(��Sv/h),MP-2(��Sv/h),MP-3(��Sv/h),MP-4(��Sv/h),MP-5(��Sv/h),MP-6(��Sv/h),MP-7(��Sv/h),MP-8(��Sv/h),����,����(m/s),���J
2022/04/25,00:00,0.576,0.856,0.548,1.038,0.738,0.349,0.601,0.568,�k�k��,4.5,��
2022/04/25,00:10,0.577,0.855,0.547,1.040,0.735,0.349,0.603,0.567,�k�k��,4.1,��
2022/04/25,00:20,0.577,0.855,0.548,1.039,0.737,0.348,0.600,0.566,�k�k��,2.9,��
2022/04/25,00:30,0.577,0.854,0.548,1.038,0.737,0.350,0.600,0.568,�k�k��,3.0,��
2022/04/25,00:40,0.576,0.855,0.547,1.040,0.737,0.349,0.599,0.568,�k�k��,3.6,��
2022/04/25,00:50,0.577,0.855,0.548,1.041,0.738,0.349,0.599,0.567,�k�k��,3.8,��
2022/04/25,01:00,0.577,0.857,0.548,1.040,0.735,0.349,0.601,0.566,�k�k��,4.0,��
2022/04/25,01:10,0.576,0.856,0.549,1.040,0.737,0.351,0.601,0.567,�k�k��,4.6,��
2022/04/25,01:20,0.576,0.856,0.547,1.038,0.737,0.349,0.601,0.567,�k�k��,5.8,��
2022/04/25,01:30,0.576,0.855,0.548,1.041,0.735,0.350,0.601,0.567,�k,4.9,��
2022/04/25,01:40,0.577,0.855,0.547,1.040,0.736,0.349,0.602,0.567,�k�k��,3.3,��
2022/04/25,01:50,0.577,0.855,0.548,1.038,0.737,0.350,0.601,0.567,�k�k��,3.6,��
2022/04/25,02:00,0.576,0.856,0.548,1.041,0.736,0.350,0.602,0.568,�k�k��,3.7,��
2022/04/25,02:10,0.576,0.854,0.549,1.039,0.737,0.349,0.601,0.567,�k�k��,3.6,��
2022/04/25,02:20,0.576,0.856,0.548,1.038,0.737,0.352,0.601,0.567,�k,4.4,��
2022/04/25,02:30,0.576,0.854,0.551,1.040,0.736,0.348,0.602,0.565,�k�k��,4.1,��
2022/04/25,02:40,0.577,0.853,0.549,1.041,0.737,0.350,0.602,0.568,�k�k��,3.9,��
2022/04/25,02:50,0.576,0.855,0.549,1.038,0.736,0.349,0.601,0.567,�k�k��,2.8,��
2022/04/25,03:00,0.575,0.856,0.547,1.039,0.736,0.349,0.602,0.566,�k�k��,2.6,��
2022/04/25,03:10,0.576,0.855,0.546,1.039,0.737,0.350,0.599,0.567,�k�k��,3.3,��
2022/04/25,03:20,0.575,0.855,0.548,1.038,0.736,0.350,0.602,0.567,�k�k��,4.0,��
2022/04/25,03:30,0.576,0.854,0.547,1.038,0.734,0.350,0.601,0.566,�k��,4.2,��
2022/04/25,03:40,0.577,0.855,0.548,1.039,0.737,0.349,0.602,0.568,�k��,4.3,��
2022/04/25,03:50,0.575,0.856,0.547,1.039,0.738,0.350,0.601,0.567,�k��,3.4,��
2022/04/25,04:00,0.577,0.854,0.548,1.042,0.736,0.349,0.602,0.568,�k�k��,3.9,��
2022/04/25,04:10,0.575,0.855,0.547,1.039,0.739,0.350,0.601,0.568,�k��,4.6,��
2022/04/25,04:20,0.576,0.856,0.548,1.040,0.737,0.350,0.599,0.566,�k,3.9,��
2022/04/25,04:30,0.575,0.855,0.546,1.041,0.737,0.348,0.601,0.566,�k,3.8,��
2022/04/25,04:40,0.575,0.852,0.547,1.039,0.735,0.349,0.598,0.567,�k,3.2,��
2022/04/25,04:50,0.575,0.855,0.546,1.039,0.734,0.350,0.600,0.566,�k,3.0,��
2022/04/25,05:00,0.573,0.854,0.546,1.038,0.736,0.349,0.601,0.567,�k�k��,3.0,��
2022/04/25,05:10,0.575,0.854,0.546,1.039,0.737,0.349,0.601,0.567,�k�k��,3.1,��
2022/04/25,05:20,0.575,0.852,0.547,1.040,0.737,0.349,0.600,0.567,�k�k��,2.6,��
2022/04/25,05:30,0.576,0.855,0.547,1.039,0.738,0.348,0.600,0.566,�k�k��,2.6,��
2022/04/25,05:40,0.574,0.856,0.546,1.038,0.735,0.348,0.600,0.566,�k�k��,1.4,��
2022/04/25,05:50,0.575,0.853,0.546,1.038,0.736,0.348,0.601,0.568,�k��,1.4,��
2022/04/25,06:00,0.575,0.854,0.545,1.037,0.734,0.349,0.600,0.568,�k�k��,1.2,��
2022/04/25,06:10,0.575,0.852,0.548,1.040,0.737,0.350,0.600,0.565,�k�k��,0.9,��
2022/04/25,06:20,0.575,0.855,0.547,1.038,0.736,0.348,0.600,0.567,�k��,1.2,��
2022/04/25,06:30,0.575,0.853,0.547,1.040,0.735,0.348,0.600,0.567,��,1.7,��
2022/04/25,06:40,0.576,0.853,0.549,1.040,0.737,0.349,0.601,0.567,-,CALM,��
2022/04/25,06:50,0.577,0.854,0.548,1.038,0.737,0.349,0.602,0.566,�쐼,1.2,��
2022/04/25,07:00,0.574,0.853,0.547,1.039,0.737,0.349,0.602,0.568,��쐼,1.5,��
2022/04/25,07:10,0.578,0.855,0.549,1.039,0.736,0.350,0.600,0.568,��쐼,2.0,��
2022/04/25,07:20,0.578,0.855,0.548,1.041,0.738,0.349,0.600,0.566,��,2.0,��
2022/04/25,07:30,0.577,0.855,0.549,1.042,0.736,0.349,0.599,0.568,��쐼,1.1,��
2022/04/25,07:40,0.576,0.854,0.548,1.040,0.737,0.349,0.602,0.566,��쐼,0.6,��
2022/04/25,07:50,0.577,0.854,0.548,1.042,0.736,0.348,0.602,0.567,��,1.4,��
2022/04/25,08:00,0.576,0.854,0.548,1.041,0.738,0.348,0.600,0.567,-,CALM,��
2022/04/25,08:10,0.575,0.853,0.548,1.039,0.737,0.347,0.600,0.566,-,CALM,��
2022/04/25,08:20,0.576,0.853,0.548,1.041,0.736,0.348,0.598,0.566,���k��,1.5,��
2022/04/25,08:30,0.575,0.852,0.547,1.041,0.734,0.347,0.600,0.565,���k��,1.1,��
2022/04/25,08:40,0.575,0.853,0.549,1.042,0.734,0.350,0.600,0.564,�쓌,0.6,��
2022/04/25,08:50,0.576,0.854,0.546,1.041,0.735,0.348,0.599,0.565,�쓌,2.8,��
2022/04/25,09:00,0.576,0.853,0.545,1.039,0.734,0.347,0.601,0.564,��쓌,3.7,��
2022/04/25,09:10,0.577,0.853,0.546,1.039,0.735,0.349,0.599,0.565,��쓌,3.4,��
2022/04/25,09:20,0.577,0.852,0.547,1.040,0.736,0.349,0.599,0.565,��쓌,4.9,��
2022/04/25,09:30,0.576,0.853,0.547,1.039,0.737,0.349,0.600,0.565,��쓌,5.6,��
2022/04/25,09:40,0.577,0.853,0.547,1.042,0.736,0.347,0.599,0.565,��쓌,6.1,��
2022/04/25,09:50,0.577,0.852,0.546,1.041,0.734,0.348,0.599,0.565,��쓌,5.6,��
2022/04/25,10:00,0.577,0.855,0.549,1.042,0.737,0.348,0.600,0.563,��쓌,5.9,��
2022/04/25,10:10,0.579,0.854,0.547,1.042,0.738,0.348,0.601,0.566,��쓌,7.9,��
2022/04/25,10:20,0.577,0.856,0.546,1.041,0.736,0.350,0.601,0.565,��쓌,6.0,��
2022/04/25,10:30,0.578,0.855,0.548,1.042,0.738,0.349,0.600,0.565,��쓌,7.3,��
2022/04/25,10:40,0.577,0.854,0.549,1.043,0.736,0.348,0.602,0.566,�쓌,7.1,��
2022/04/25,10:50,0.577,0.854,0.548,1.041,0.735,0.347,0.600,0.566,��쓌,6.2,��
2022/04/25,11:00,0.579,0.854,0.548,1.041,0.739,0.350,0.601,0.565,��쓌,7.0,��
2022/04/25,11:10,0.579,0.856,0.547,1.042,0.737,0.348,0.604,0.566,��쓌,6.9,��
2022/04/25,11:20,0.579,0.854,0.548,1.040,0.739,0.350,0.602,0.564,��쓌,7.5,��
2022/04/25,11:30,0.578,0.855,0.548,1.039,0.739,0.349,0.603,0.567,��쓌,7.8,��
2022/04/25,11:40,0.580,0.858,0.548,1.037,0.739,0.349,0.602,0.566,��,7.9,��
2022/04/25,11:50,0.579,0.858,0.549,1.041,0.739,0.349,0.603,0.565,��,8.3,��
2022/04/25,12:00,0.580,0.856,0.548,1.038,0.739,0.349,0.604,0.565,��,7.1,��
2022/04/25,12:10,0.579,0.860,0.550,1.041,0.739,0.349,0.604,0.566,��쓌,6.7,��
2022/04/25,12:20,0.580,0.858,0.549,1.038,0.742,0.350,0.603,0.565,��쓌,6.2,��
2022/04/25,12:30,0.579,0.857,0.550,1.039,0.740,0.349,0.602,0.565,��,5.9,��
2022/04/25,12:40,0.580,0.859,0.550,1.040,0.740,0.350,0.605,0.566,��쓌,6.8,��
2022/04/25,12:50,0.580,0.859,0.549,1.040,0.739,0.349,0.604,0.566,��쓌,7.4,��
2022/04/25,13:00,0.581,0.859,0.549,1.037,0.741,0.350,0.603,0.567,��쓌,7.3,��
2022/04/25,13:10,0.580,0.858,0.550,1.041,0.740,0.348,0.602,0.566,��쓌,7.5,��
2022/04/25,13:20,0.581,0.856,0.549,1.042,0.742,0.350,0.602,0.566,��쓌,8.5,��
2022/04/25,13:30,0.581,0.857,0.549,1.043,0.741,0.350,0.604,0.566,��쓌,7.4,��
2022/04/25,13:40,0.577,0.856,0.548,1.043,0.742,0.349,0.603,0.566,��쓌,8.2,��
2022/04/25,13:50,0.581,0.857,0.549,1.042,0.741,0.349,0.603,0.567,��쓌,7.0,��
2022/04/25,14:00,0.582,0.858,0.549,1.048,0.741,0.349,0.604,0.565,��쓌,7.8,��
2022/04/25,14:10,0.582,0.858,0.548,1.046,0.741,0.350,0.603,0.565,��쓌,7.5,��
2022/04/25,14:20,0.580,0.858,0.550,1.044,0.743,0.349,0.602,0.566,��쓌,7.7,��
2022/04/25,14:30,0.580,0.860,0.550,1.044,0.741,0.349,0.603,0.565,��쓌,8.3,��
2022/04/25,14:40,0.579,0.860,0.549,1.043,0.743,0.350,0.604,0.565,��,9.5,��
2022/04/25,14:50,0.580,0.860,0.548,1.042,0.743,0.349,0.604,0.567,��쓌,7.9,��
2022/04/25,15:00,0.579,0.857,0.553,1.043,0.743,0.348,0.603,0.566,��,7.7,��
2022/04/25,15:10,0.579,0.860,0.549,1.042,0.744,0.349,0.602,0.567,��,7.7,��
2022/04/25,15:20,0.580,0.861,0.549,1.043,0.742,0.349,0.602,0.566,��,8.8,��
2022/04/25,15:30,0.580,0.859,0.551,1.043,0.741,0.350,0.604,0.567,��,6.4,��
2022/04/25,15:40,0.581,0.859,0.551,1.044,0.743,0.349,0.603,0.564,��쓌,8.5,��
2022/04/25,15:50,0.580,0.860,0.551,1.043,0.743,0.351,0.604,0.566,��,9.4,��
2022/04/25,16:00,0.579,0.860,0.550,1.044,0.742,0.350,0.604,0.567,��쓌,10.4,��
2022/04/25,16:10,0.580,0.859,0.550,1.044,0.743,0.351,0.603,0.566,��,8.7,��
2022/04/25,16:20,0.580,0.859,0.550,1.043,0.743,0.350,0.603,0.566,��,8.7,��
2022/04/25,16:30,0.582,0.860,0.550,1.042,0.742,0.349,0.603,0.567,��,10.0,��
2022/04/25,16:40,0.579,0.860,0.550,1.041,0.742,0.350,0.602,0.567,��,9.0,��
2022/04/25,16:50,0.578,0.860,0.551,1.044,0.742,0.350,0.604,0.565,��쓌,9.9,��
2022/04/25,17:00,0.580,0.860,0.550,1.045,0.742,0.351,0.602,0.565,��쓌,10.0,��
2022/04/25,17:10,0.578,0.857,0.549,1.046,0.743,0.350,0.602,0.566,��쓌,9.3,��
2022/04/25,17:20,0.578,0.861,0.550,1.043,0.743,0.349,0.601,0.567,��쓌,9.4,��
2022/04/25,17:30,0.578,0.861,0.551,1.046,0.743,0.348,0.602,0.566,��쓌,10.0,��
2022/04/25,17:40,0.580,0.862,0.549,1.045,0.744,0.349,0.601,0.568,��쓌,10.3,��
2022/04/25,17:50,0.578,0.861,0.550,1.047,0.744,0.349,0.603,0.567,��쓌,10.7,��
2022/04/25,18:00,0.580,0.860,0.548,1.048,0.741,0.349,0.602,0.565,��쓌,12.1,��
2022/04/25,18:10,0.580,0.861,0.549,1.049,0.743,0.349,0.602,0.566,��쓌,11.6,��
2022/04/25,18:20,0.579,0.861,0.550,1.047,0.742,0.350,0.603,0.568,��,10.0,��
2022/04/25,18:30,0.579,0.861,0.548,1.048,0.742,0.349,0.604,0.570,��쓌,6.3,��
2022/04/25,18:40,0.579,0.861,0.550,1.048,0.741,0.349,0.604,0.568,��,7.0,��
2022/04/25,18:50,0.579,0.862,0.549,1.047,0.741,0.350,0.603,0.570,��,8.0,��
2022/04/25,19:00,0.581,0.861,0.550,1.045,0.741,0.349,0.604,0.568,��,7.8,��
2022/04/25,19:10,0.577,0.862,0.550,1.048,0.742,0.349,0.603,0.568,��,8.7,��
2022/04/25,19:20,0.581,0.863,0.550,1.046,0.741,0.350,0.604,0.568,��,7.5,��
2022/04/25,19:30,0.581,0.863,0.552,1.049,0.743,0.350,0.603,0.566,��,7.5,��
2022/04/25,19:40,0.581,0.862,0.552,1.047,0.743,0.351,0.606,0.569,��,7.1,��
2022/04/25,19:50,0.580,0.864,0.552,1.045,0.743,0.351,0.604,0.568,��,6.2,��
2022/04/25,20:00,0.578,0.864,0.551,1.049,0.743,0.351,0.604,0.568,��,5.6,��
2022/04/25,20:10,0.581,0.865,0.552,1.048,0.744,0.351,0.603,0.569,��,4.7,��
2022/04/25,20:20,0.581,0.864,0.551,1.047,0.744,0.350,0.602,0.568,��,3.7,��
2022/04/25,20:30,0.582,0.864,0.551,1.046,0.742,0.350,0.603,0.569,��,3.5,��
2022/04/25,20:40,0.581,0.862,0.550,1.047,0.743,0.351,0.603,0.569,��,2.9,��
2022/04/25,20:50,0.580,0.862,0.551,1.047,0.744,0.351,0.603,0.568,��쓌,3.1,��
2022/04/25,21:00,0.581,0.861,0.552,1.046,0.744,0.350,0.603,0.568,��쓌,3.0,��
2022/04/25,21:10,0.580,0.861,0.552,1.046,0.744,0.352,0.604,0.568,��쓌,3.0,��
2022/04/25,21:20,0.579,0.863,0.552,1.046,0.745,0.351,0.603,0.570,��쓌,2.8,��
2022/04/25,21:30,0.581,0.864,0.552,1.045,0.745,0.352,0.602,0.568,��,3.8,��
2022/04/25,21:40,0.580,0.862,0.551,1.046,0.744,0.350,0.603,0.569,��,4.6,��
2022/04/25,21:50,0.580,0.862,0.551,1.047,0.744,0.351,0.603,0.568,��쓌,5.0,��
2022/04/25,22:00,0.580,0.863,0.551,1.048,0.743,0.349,0.603,0.568,��쓌,5.0,��
2022/04/25,22:10,0.580,0.863,0.552,1.047,0.746,0.350,0.603,0.568,��,6.3,��
2022/04/25,22:20,0.581,0.864,0.552,1.047,0.742,0.351,0.605,0.569,��,5.7,��
2022/04/25,22:30,0.580,0.864,0.551,1.049,0.743,0.352,0.603,0.567,��,5.7,��
2022/04/25,22:40,0.580,0.864,0.550,1.045,0.745,0.351,0.605,0.568,��쓌,5.1,��
2022/04/25,22:50,0.581,0.862,0.552,1.047,0.744,0.351,0.603,0.569,��쓌,4.7,��
2022/04/25,23:00,0.580,0.862,0.551,1.046,0.743,0.349,0.603,0.569,��,6.8,��
2022/04/25,23:10,0.581,0.865,0.550,1.047,0.745,0.350,0.603,0.568,��,7.9,��
2022/04/25,23:20,0.580,0.863,0.549,1.047,0.745,0.350,0.605,0.568,��,7.0,��
2022/04/25,23:30,0.579,0.862,0.552,1.048,0.744,0.351,0.604,0.570,��,5.3,��
2022/04/25,23:40,0.581,0.863,0.550,1.047,0.745,0.352,0.605,0.569,��,5.2,��
2022/04/25,23:50,0.579,0.862,0.550,1.049,0.744,0.353,0.603,0.567,��,6.3,��
